Regional Weather Roundup
Issued by NWS

Home | Current Version | Previous Version | Text Only | Print | Product List | Glossary Off
Versions: 1 2 3 4 5 6 7 8 9 10 11 12 13 14 15 16 17 18 19 20 21 22 23 24 25 26 27 28 29 30 31 32 33 34 35 36 37 38 39 40 41 42 43 44 45 46 47 48 49 50

983
ASUS43 KBIS 292131
RWRND
NORTH DAKOTA REGIONAL WEATHER ROUNDUP
NATIONAL WEATHER SERVICE EASTERN NORTH DAKOTA/GRAND FORKS ND
400 PM CDT MON MAY 29 2017

  NOTE: "FAIR" INDICATES FEW OR NO CLOUDS BELOW 12,000 FEET WITH NO
  SIGNIFICANT WEATHER AND/OR OBSTRUCTIONS TO VISIBILITY.

NDZ001>003-009>011-017-292200-
...NORTHWEST NORTH DAKOTA...

CITY           SKY/WX    TMP DP  RH WIND       PRES   REMARKS
WILLISTON      PTSUNNY   68  33  27 N23G29    30.08F
MINOT          CLOUDY    67  37  33 NW23G31   29.98F
MINOT AFB      PTSUNNY   65  35  33 NW24G35   29.97S
$$

NDZ018>021-031>035-040>046-292200-
...SOUTHWEST NORTH DAKOTA...

CITY           SKY/WX    TMP DP  RH WIND       PRES   REMARKS
BISMARCK       CLOUDY    64  36  35 NW24G30   30.02F
DICKINSON      PTSUNNY   61  31  32 NW20G26   30.06F
GARRISON         N/A     61  36  39 N26G36    30.00F
HETTINGER      FAIR      65  31  28 NW18G31   30.09F
$$

NDZ004>008-012>016-024-026-027-054-292200-
...NORTHEAST NORTH DAKOTA...

CITY           SKY/WX    TMP DP  RH WIND       PRES   REMARKS
GRAND FORKS    LGT RAIN  53  49  86 N14       29.89R
GRAND FORKS AF LGT RAIN  54  48  82 N16G29    29.89R
DEVILS LAKE    CLOUDY    55  45  68 NW23G32   29.92F
$$

NDZ022-023-025-028>030-036>039-047>053-292200-
...SOUTHEAST NORTH DAKOTA...

CITY           SKY/WX    TMP DP  RH WIND       PRES   REMARKS
JAMESTOWN      CLOUDY    56  41  57 NW18G30   29.95
FARGO          LGT RAIN  55  49  80 W15       29.89S
WAHPETON       CLOUDY    54  46  76 NW12G23   29.92R
$$




USA.gov is the U.S. government's official web portal to all federal, state and local government web resources and services.